Location: Unspecified
(0.0000°N, 0.0000°E)
Time: 22:44:21
(UTC+00:00)

N. Korean satellite - Pass Details

Date: 23 January 2022
Orbit: 447 x 490 km, 97.3° (Epoch: 27 January)

Event Time Altitude Azimuth Distance (km) Brightness Sun altitude
Rises 04:18:44 0° 30° (NNE) 2,548 10.3 -26.5°
Reaches altitude 10° 04:21:03 10° 44° (NE) 1,667 9.5 -26.0°
Maximum altitude 04:24:04 25° 101° (E) 1,004 8.8 -25.3°
Drops below altitude 10° 04:27:03 10° 158° (SSE) 1,661 9.8 -24.6°
Sets 04:29:21 0° 171° (S) 2,536 10.6 -24.0°
